Location: Althorst
(53.6379°N, 10.7715°E)
Time: 14:22:43
(UTC+00:00)

CZ-4B R/B - Pass Details

Date: 10 December 2019
Orbit: 392 x 469 km, 97.6° (Epoch: 19 January)

Event Time Altitude Azimuth Distance (km) Brightness Sun altitude
Exits shadow 16:09:48 - 9° (N) 2,451 4.8 -9.9°
Reaches altitude 10° 16:11:44 10° 4° (N) 1,646 4.0 -10.2°
Maximum altitude 16:15:09 47° 290° (WNW) 631 2.5 -10.7°
Drops below altitude 10° 16:18:30 10° 216° (SW) 1,619 5.2 -11.1°
Sets 16:20:34 0° 210° (SSW) 2,482 6.1 -11.4°
